����,10���Ԉړ��ώZ�J��(mm),1���Ԉړ��ώZ�J��(mm),���J��(mm),�݌v�J��(mm)
2023-09-11T00:00:00+09:00,0,0,9,9
2023-09-11T00:01:00+09:00,0,0,0,9
2023-09-11T00:02:00+09:00,0,0,0,9
2023-09-11T00:03:00+09:00,0,0,0,9
2023-09-11T00:04:00+09:00,0,0,0,9
2023-09-11T00:05:00+09:00,0,0,0,9
2023-09-11T00:06:00+09:00,0,0,0,9
2023-09-11T00:07:00+09:00,0,0,0,9
2023-09-11T00:08:00+09:00,0,0,0,9
2023-09-11T00:09:00+09:00,0,0,0,9
2023-09-11T00:10:00+09:00,0,0,0,9
2023-09-11T00:11:00+09:00,0,0,0,9
2023-09-11T00:12:00+09:00,0,0,0,9
2023-09-11T00:13:00+09:00,0,0,0,9
2023-09-11T00:14:00+09:00,0,0,0,9
2023-09-11T00:15:00+09:00,0,0,0,9
2023-09-11T00:16:00+09:00,0,0,0,9
2023-09-11T00:17:00+09:00,0,0,0,9
2023-09-11T00:18:00+09:00,0,0,0,9
2023-09-11T00:19:00+09:00,0,0,0,9
2023-09-11T00:20:00+09:00,0,0,0,9
2023-09-11T00:21:00+09:00,0,0,0,9
2023-09-11T00:22:00+09:00,0,0,0,9
2023-09-11T00:23:00+09:00,0,0,0,9
2023-09-11T00:24:00+09:00,0,0,0,9
2023-09-11T00:25:00+09:00,0,0,0,9
2023-09-11T00:26:00+09:00,0,0,0,9
2023-09-11T00:27:00+09:00,0,0,0,9
2023-09-11T00:28:00+09:00,0,0,0,9
2023-09-11T00:29:00+09:00,0,0,0,9
2023-09-11T00:30:00+09:00,0,0,0,9
2023-09-11T00:31:00+09:00,0,0,0,9
2023-09-11T00:32:00+09:00,0,0,0,9
2023-09-11T00:33:00+09:00,0,0,0,9
2023-09-11T00:34:00+09:00,0,0,0,9
2023-09-11T00:35:00+09:00,0,0,0,9
2023-09-11T00:36:00+09:00,0,0,0,9
2023-09-11T00:37:00+09:00,0,0,0,9
2023-09-11T00:38:00+09:00,0,0,0,9
2023-09-11T00:39:00+09:00,0,0,0,9
2023-09-11T00:40:00+09:00,0,0,0,9
2023-09-11T00:41:00+09:00,0,0,0,9
2023-09-11T00:42:00+09:00,0,0,0,9
2023-09-11T00:43:00+09:00,0,0,0,9
2023-09-11T00:44:00+09:00,0,0,0,9
2023-09-11T00:45:00+09:00,0,0,0,9
2023-09-11T00:46:00+09:00,0,0,0,9
2023-09-11T00:47:00+09:00,0,0,0,9
2023-09-11T00:48:00+09:00,0,0,0,9
2023-09-11T00:49:00+09:00,0,0,0,9
2023-09-11T00:50:00+09:00,0,0,0,9
2023-09-11T00:51:00+09:00,0,0,0,9
2023-09-11T00:52:00+09:00,0,0,0,9
2023-09-11T00:53:00+09:00,0,0,0,9
2023-09-11T00:54:00+09:00,0,0,0,9
2023-09-11T00:55:00+09:00,0,0,0,9
2023-09-11T00:56:00+09:00,0,0,0,9
2023-09-11T00:57:00+09:00,0,0,0,9
2023-09-11T00:58:00+09:00,0,0,0,9
2023-09-11T00:59:00+09:00,0,0,0,9
2023-09-11T01:00:00+09:00,0,0,0,9
2023-09-11T01:01:00+09:00,0,0,0,9
2023-09-11T01:02:00+09:00,0,0,0,9
2023-09-11T01:03:00+09:00,0,0,0,9
2023-09-11T01:04:00+09:00,0,0,0,9
2023-09-11T01:05:00+09:00,0,0,0,9
2023-09-11T01:06:00+09:00,0,0,0,9
2023-09-11T01:07:00+09:00,0,0,0,9
2023-09-11T01:08:00+09:00,0,0,0,9
2023-09-11T01:09:00+09:00,0,0,0,9
2023-09-11T01:10:00+09:00,0,0,0,9
2023-09-11T01:11:00+09:00,0,0,0,9
2023-09-11T01:12:00+09:00,0,0,0,9
2023-09-11T01:13:00+09:00,0,0,0,9
2023-09-11T01:14:00+09:00,0,0,0,9
2023-09-11T01:15:00+09:00,0,0,0,9
2023-09-11T01:16:00+09:00,0,0,0,9
2023-09-11T01:17:00+09:00,0,0,0,9
2023-09-11T01:18:00+09:00,0,0,0,9
2023-09-11T01:19:00+09:00,0,0,0,9
2023-09-11T01:20:00+09:00,0,0,0,9
2023-09-11T01:21:00+09:00,0,0,0,9
2023-09-11T01:22:00+09:00,0,0,0,9
2023-09-11T01:23:00+09:00,0,0,0,9
2023-09-11T01:24:00+09:00,0,0,0,9
2023-09-11T01:25:00+09:00,0,0,0,9
2023-09-11T01:26:00+09:00,0,0,0,9
2023-09-11T01:27:00+09:00,0,0,0,9
2023-09-11T01:28:00+09:00,0,0,0,9
2023-09-11T01:29:00+09:00,0,0,0,9
2023-09-11T01:30:00+09:00,0,0,0,9
2023-09-11T01:31:00+09:00,0,0,0,9
2023-09-11T01:32:00+09:00,0,0,0,9
2023-09-11T01:33:00+09:00,0,0,0,9
2023-09-11T01:34:00+09:00,0,0,0,9
2023-09-11T01:35:00+09:00,0,0,0,9
2023-09-11T01:36:00+09:00,0,0,0,9
2023-09-11T01:37:00+09:00,0,0,0,9
2023-09-11T01:38:00+09:00,0,0,0,9
2023-09-11T01:39:00+09:00,0,0,0,9
2023-09-11T01:40:00+09:00,0,0,0,9
2023-09-11T01:41:00+09:00,0,0,0,9
2023-09-11T01:42:00+09:00,0,0,0,9
2023-09-11T01:43:00+09:00,0,0,0,9
2023-09-11T01:44:00+09:00,0,0,0,9
2023-09-11T01:45:00+09:00,0,0,0,9
2023-09-11T01:46:00+09:00,0,0,0,9
2023-09-11T01:47:00+09:00,0,0,0,9
2023-09-11T01:48:00+09:00,0,0,0,9
2023-09-11T01:49:00+09:00,0,0,0,9
2023-09-11T01:50:00+09:00,0,0,0,9
2023-09-11T01:51:00+09:00,0,0,0,9
2023-09-11T01:52:00+09:00,0,0,0,9
2023-09-11T01:53:00+09:00,0,0,0,9
2023-09-11T01:54:00+09:00,0,0,0,9
2023-09-11T01:55:00+09:00,0,0,0,9
2023-09-11T01:56:00+09:00,0,0,0,9
2023-09-11T01:57:00+09:00,0,0,0,9
2023-09-11T01:58:00+09:00,0,0,0,9
2023-09-11T01:59:00+09:00,0,0,0,9
2023-09-11T02:00:00+09:00,0,0,0,9
2023-09-11T02:01:00+09:00,0,0,0,9
2023-09-11T02:02:00+09:00,0,0,0,9
2023-09-11T02:03:00+09:00,0,0,0,9
2023-09-11T02:04:00+09:00,0,0,0,9
2023-09-11T02:05:00+09:00,0,0,0,9
2023-09-11T02:06:00+09:00,0,0,0,9
2023-09-11T02:07:00+09:00,0,0,0,9
2023-09-11T02:08:00+09:00,0,0,0,9
2023-09-11T02:09:00+09:00,0,0,0,9
2023-09-11T02:10:00+09:00,0,0,0,9
2023-09-11T02:11:00+09:00,3,3,3,12
2023-09-11T02:12:00+09:00,4.5,4.5,4.5,13.5
2023-09-11T02:13:00+09:00,5.5,5.5,5.5,14.5
2023-09-11T02:14:00+09:00,6,6,6,15
2023-09-11T02:15:00+09:00,6,6,6,15
2023-09-11T02:16:00+09:00,7,7,7,16
2023-09-11T02:17:00+09:00,8,8,8,17
2023-09-11T02:18:00+09:00,8,8,8,17
2023-09-11T02:19:00+09:00,8.5,8.5,8.5,17.5
2023-09-11T02:20:00+09:00,8.5,8.5,8.5,17.5
2023-09-11T02:21:00+09:00,6,9,9,18
2023-09-11T02:22:00+09:00,4.5,9,9,18
2023-09-11T02:23:00+09:00,3.5,9,9,18
2023-09-11T02:24:00+09:00,3,9,9,18
2023-09-11T02:25:00+09:00,3.5,9.5,9.5,18.5
2023-09-11T02:26:00+09:00,3,10,10,19
2023-09-11T02:27:00+09:00,2,10,10,19
2023-09-11T02:28:00+09:00,2,10,10,19
2023-09-11T02:29:00+09:00,2,10.5,10.5,19.5
2023-09-11T02:30:00+09:00,2,10.5,10.5,19.5
2023-09-11T02:31:00+09:00,1.5,10.5,10.5,19.5
2023-09-11T02:32:00+09:00,1.5,10.5,10.5,19.5
2023-09-11T02:33:00+09:00,1.5,10.5,10.5,19.5
2023-09-11T02:34:00+09:00,1.5,10.5,10.5,19.5
2023-09-11T02:35:00+09:00,1,10.5,10.5,19.5
2023-09-11T02:36:00+09:00,0.5,10.5,10.5,19.5
2023-09-11T02:37:00+09:00,0.5,10.5,10.5,19.5
2023-09-11T02:38:00+09:00,0.5,10.5,10.5,19.5
2023-09-11T02:39:00+09:00,0,10.5,10.5,19.5
2023-09-11T02:40:00+09:00,0,10.5,10.5,19.5
2023-09-11T02:41:00+09:00,0,10.5,10.5,19.5
2023-09-11T02:42:00+09:00,0,10.5,10.5,19.5
2023-09-11T02:43:00+09:00,0,10.5,10.5,19.5
2023-09-11T02:44:00+09:00,0,10.5,10.5,19.5
2023-09-11T02:45:00+09:00,0,10.5,10.5,19.5
2023-09-11T02:46:00+09:00,0,10.5,10.5,19.5
2023-09-11T02:47:00+09:00,0,10.5,10.5,19.5
2023-09-11T02:48:00+09:00,0,10.5,10.5,19.5
2023-09-11T02:49:00+09:00,0,10.5,10.5,19.5
2023-09-11T02:50:00+09:00,0,10.5,10.5,19.5
2023-09-11T02:51:00+09:00,0,10.5,10.5,19.5
2023-09-11T02:52:00+09:00,0,10.5,10.5,19.5
2023-09-11T02:53:00+09:00,0,10.5,10.5,19.5
2023-09-11T02:54:00+09:00,0,10.5,10.5,19.5
2023-09-11T02:55:00+09:00,0,10.5,10.5,19.5
2023-09-11T02:56:00+09:00,0,10.5,10.5,19.5
2023-09-11T02:57:00+09:00,0,10.5,10.5,19.5
2023-09-11T02:58:00+09:00,0,10.5,10.5,19.5
2023-09-11T02:59:00+09:00,0,10.5,10.5,19.5
2023-09-11T03:00:00+09:00,0,10.5,10.5,19.5
2023-09-11T03:01:00+09:00,0,10.5,10.5,19.5
2023-09-11T03:02:00+09:00,0,10.5,10.5,19.5
2023-09-11T03:03:00+09:00,0,10.5,10.5,19.5
2023-09-11T03:04:00+09:00,0,10.5,10.5,19.5
2023-09-11T03:05:00+09:00,0,10.5,10.5,19.5
2023-09-11T03:06:00+09:00,0,10.5,10.5,19.5
2023-09-11T03:07:00+09:00,0,10.5,10.5,19.5
2023-09-11T03:08:00+09:00,0,10.5,10.5,19.5
2023-09-11T03:09:00+09:00,0,10.5,10.5,19.5
2023-09-11T03:10:00+09:00,0,10.5,10.5,19.5
2023-09-11T03:11:00+09:00,0,7.5,10.5,19.5
2023-09-11T03:12:00+09:00,0,6,10.5,19.5
2023-09-11T03:13:00+09:00,0,5,10.5,19.5
2023-09-11T03:14:00+09:00,0,4.5,10.5,19.5
2023-09-11T03:15:00+09:00,0,4.5,10.5,19.5
2023-09-11T03:16:00+09:00,0,3.5,10.5,19.5
2023-09-11T03:17:00+09:00,0,2.5,10.5,19.5
2023-09-11T03:18:00+09:00,0,2.5,10.5,19.5
2023-09-11T03:19:00+09:00,0,2,10.5,19.5
2023-09-11T03:20:00+09:00,0,2,10.5,19.5
2023-09-11T03:21:00+09:00,0,1.5,10.5,19.5
2023-09-11T03:22:00+09:00,0,1.5,10.5,19.5
2023-09-11T03:23:00+09:00,0,1.5,10.5,19.5
2023-09-11T03:24:00+09:00,0,1.5,10.5,19.5
2023-09-11T03:25:00+09:00,0,1,10.5,19.5
2023-09-11T03:26:00+09:00,0,0.5,10.5,19.5
2023-09-11T03:27:00+09:00,0,0.5,10.5,19.5
2023-09-11T03:28:00+09:00,0,0.5,10.5,19.5
2023-09-11T03:29:00+09:00,0,0,10.5,19.5
2023-09-11T03:30:00+09:00,0,0,10.5,19.5
2023-09-11T03:31:00+09:00,0,0,10.5,19.5
2023-09-11T03:32:00+09:00,0,0,10.5,19.5
2023-09-11T03:33:00+09:00,0,0,10.5,19.5
2023-09-11T03:34:00+09:00,0,0,10.5,19.5
2023-09-11T03:35:00+09:00,0,0,10.5,19.5
2023-09-11T03:36:00+09:00,0,0,10.5,19.5
2023-09-11T03:37:00+09:00,0,0,10.5,19.5
2023-09-11T03:38:00+09:00,0,0,10.5,19.5
2023-09-11T03:39:00+09:00,0,0,10.5,19.5
2023-09-11T03:40:00+09:00,0,0,10.5,19.5
2023-09-11T03:41:00+09:00,0,0,10.5,19.5
2023-09-11T03:42:00+09:00,0,0,10.5,19.5
2023-09-11T03:43:00+09:00,0,0,10.5,19.5
2023-09-11T03:44:00+09:00,0,0,10.5,19.5
2023-09-11T03:45:00+09:00,0,0,10.5,19.5
2023-09-11T03:46:00+09:00,0,0,10.5,19.5
2023-09-11T03:47:00+09:00,0,0,10.5,19.5
2023-09-11T03:48:00+09:00,0,0,10.5,19.5
2023-09-11T03:49:00+09:00,0,0,10.5,19.5
2023-09-11T03:50:00+09:00,0,0,10.5,19.5
2023-09-11T03:51:00+09:00,0,0,10.5,19.5
2023-09-11T03:52:00+09:00,0,0,10.5,19.5
2023-09-11T03:53:00+09:00,0,0,10.5,19.5
2023-09-11T03:54:00+09:00,0,0,10.5,19.5
2023-09-11T03:55:00+09:00,0,0,10.5,19.5
2023-09-11T03:56:00+09:00,0,0,10.5,19.5
2023-09-11T03:57:00+09:00,0,0,10.5,19.5
2023-09-11T03:58:00+09:00,0,0,10.5,19.5
2023-09-11T03:59:00+09:00,0,0,10.5,19.5
2023-09-11T04:00:00+09:00,0,0,10.5,19.5
2023-09-11T04:01:00+09:00,0,0,10.5,19.5
2023-09-11T04:02:00+09:00,0,0,10.5,19.5
2023-09-11T04:03:00+09:00,0,0,10.5,19.5
2023-09-11T04:04:00+09:00,0,0,10.5,19.5
2023-09-11T04:05:00+09:00,0,0,10.5,19.5
2023-09-11T04:06:00+09:00,0,0,10.5,19.5
2023-09-11T04:07:00+09:00,0,0,10.5,19.5
2023-09-11T04:08:00+09:00,0,0,10.5,19.5
2023-09-11T04:09:00+09:00,0,0,10.5,19.5
2023-09-11T04:10:00+09:00,0,0,10.5,19.5
2023-09-11T04:11:00+09:00,0,0,10.5,19.5
2023-09-11T04:12:00+09:00,0,0,10.5,19.5
2023-09-11T04:13:00+09:00,0,0,10.5,19.5
2023-09-11T04:14:00+09:00,0,0,10.5,19.5
2023-09-11T04:15:00+09:00,0,0,10.5,19.5
2023-09-11T04:16:00+09:00,0,0,10.5,19.5
2023-09-11T04:17:00+09:00,0,0,10.5,19.5
2023-09-11T04:18:00+09:00,0,0,10.5,19.5
2023-09-11T04:19:00+09:00,0,0,10.5,19.5
2023-09-11T04:20:00+09:00,0,0,10.5,19.5
2023-09-11T04:21:00+09:00,0,0,10.5,19.5
2023-09-11T04:22:00+09:00,0,0,10.5,19.5
2023-09-11T04:23:00+09:00,0,0,10.5,19.5
2023-09-11T04:24:00+09:00,0,0,10.5,19.5
2023-09-11T04:25:00+09:00,0,0,10.5,19.5
2023-09-11T04:26:00+09:00,0,0,10.5,19.5
2023-09-11T04:27:00+09:00,0,0,10.5,19.5
2023-09-11T04:28:00+09:00,0,0,10.5,19.5
2023-09-11T04:29:00+09:00,0,0,10.5,19.5
2023-09-11T04:30:00+09:00,0,0,10.5,19.5
2023-09-11T04:31:00+09:00,0,0,10.5,19.5
2023-09-11T04:32:00+09:00,0,0,10.5,19.5
2023-09-11T04:33:00+09:00,0,0,10.5,19.5
2023-09-11T04:34:00+09:00,0,0,10.5,19.5
2023-09-11T04:35:00+09:00,0,0,10.5,19.5
2023-09-11T04:36:00+09:00,0,0,10.5,19.5
2023-09-11T04:37:00+09:00,0,0,10.5,19.5
2023-09-11T04:38:00+09:00,0,0,10.5,19.5
2023-09-11T04:39:00+09:00,0,0,10.5,19.5
2023-09-11T04:40:00+09:00,0,0,10.5,19.5
2023-09-11T04:41:00+09:00,0,0,10.5,19.5
2023-09-11T04:42:00+09:00,0,0,10.5,19.5
2023-09-11T04:43:00+09:00,0,0,10.5,19.5
2023-09-11T04:44:00+09:00,0,0,10.5,19.5
2023-09-11T04:45:00+09:00,0,0,10.5,19.5
2023-09-11T04:46:00+09:00,0,0,10.5,19.5
2023-09-11T04:47:00+09:00,0,0,10.5,19.5
2023-09-11T04:48:00+09:00,0,0,10.5,19.5
2023-09-11T04:49:00+09:00,0,0,10.5,19.5
2023-09-11T04:50:00+09:00,0,0,10.5,19.5
2023-09-11T04:51:00+09:00,0,0,10.5,19.5
2023-09-11T04:52:00+09:00,0,0,10.5,19.5
2023-09-11T04:53:00+09:00,0,0,10.5,19.5
2023-09-11T04:54:00+09:00,0,0,10.5,19.5
2023-09-11T04:55:00+09:00,0,0,10.5,19.5
2023-09-11T04:56:00+09:00,0,0,10.5,19.5
2023-09-11T04:57:00+09:00,0,0,10.5,19.5
2023-09-11T04:58:00+09:00,0,0,10.5,19.5
2023-09-11T04:59:00+09:00,0,0,10.5,19.5
2023-09-11T05:00:00+09:00,0,0,10.5,19.5
2023-09-11T05:01:00+09:00,0,0,10.5,19.5
2023-09-11T05:02:00+09:00,0,0,10.5,19.5
2023-09-11T05:03:00+09:00,0,0,10.5,19.5
2023-09-11T05:04:00+09:00,0,0,10.5,19.5
2023-09-11T05:05:00+09:00,0,0,10.5,19.5
2023-09-11T05:06:00+09:00,0,0,10.5,19.5
2023-09-11T05:07:00+09:00,0,0,10.5,19.5
2023-09-11T05:08:00+09:00,0,0,10.5,19.5
2023-09-11T05:09:00+09:00,0,0,10.5,19.5
2023-09-11T05:10:00+09:00,0,0,10.5,19.5
2023-09-11T05:11:00+09:00,0,0,10.5,19.5
2023-09-11T05:12:00+09:00,0,0,10.5,19.5
2023-09-11T05:13:00+09:00,0,0,10.5,19.5
2023-09-11T05:14:00+09:00,0,0,10.5,19.5
2023-09-11T05:15:00+09:00,0,0,10.5,19.5
2023-09-11T05:16:00+09:00,0,0,10.5,19.5
2023-09-11T05:17:00+09:00,0,0,10.5,19.5
2023-09-11T05:18:00+09:00,0,0,10.5,19.5
2023-09-11T05:19:00+09:00,0,0,10.5,19.5
2023-09-11T05:20:00+09:00,0,0,10.5,19.5
2023-09-11T05:21:00+09:00,0,0,10.5,19.5
2023-09-11T05:22:00+09:00,0,0,10.5,19.5
2023-09-11T05:23:00+09:00,0,0,10.5,19.5
2023-09-11T05:24:00+09:00,0,0,10.5,19.5
2023-09-11T05:25:00+09:00,0,0,10.5,19.5
2023-09-11T05:26:00+09:00,0,0,10.5,19.5
2023-09-11T05:27:00+09:00,0,0,10.5,19.5
2023-09-11T05:28:00+09:00,0,0,10.5,19.5
2023-09-11T05:29:00+09:00,0,0,10.5,19.5
2023-09-11T05:30:00+09:00,0,0,10.5,19.5
2023-09-11T05:31:00+09:00,0,0,10.5,19.5
2023-09-11T05:32:00+09:00,0,0,10.5,19.5
2023-09-11T05:33:00+09:00,0,0,10.5,19.5
2023-09-11T05:34:00+09:00,0,0,10.5,19.5
2023-09-11T05:35:00+09:00,0,0,10.5,19.5
2023-09-11T05:36:00+09:00,0,0,10.5,19.5
2023-09-11T05:37:00+09:00,0,0,10.5,19.5
2023-09-11T05:38:00+09:00,0,0,10.5,19.5
2023-09-11T05:39:00+09:00,0,0,10.5,19.5
2023-09-11T05:40:00+09:00,0,0,10.5,19.5
2023-09-11T05:41:00+09:00,0,0,10.5,19.5
2023-09-11T05:42:00+09:00,0,0,10.5,19.5
2023-09-11T05:43:00+09:00,0,0,10.5,19.5
2023-09-11T05:44:00+09:00,0,0,10.5,19.5
2023-09-11T05:45:00+09:00,0,0,10.5,19.5
2023-09-11T05:46:00+09:00,0,0,10.5,19.5
2023-09-11T05:47:00+09:00,0,0,10.5,19.5
2023-09-11T05:48:00+09:00,0,0,10.5,19.5
2023-09-11T05:49:00+09:00,0,0,10.5,19.5
2023-09-11T05:50:00+09:00,0,0,10.5,19.5
2023-09-11T05:51:00+09:00,0,0,10.5,19.5
2023-09-11T05:52:00+09:00,0,0,10.5,19.5
2023-09-11T05:53:00+09:00,0,0,10.5,19.5
2023-09-11T05:54:00+09:00,0,0,10.5,19.5
2023-09-11T05:55:00+09:00,0,0,10.5,19.5
2023-09-11T05:56:00+09:00,0,0,10.5,19.5
2023-09-11T05:57:00+09:00,0,0,10.5,19.5
2023-09-11T05:58:00+09:00,0,0,10.5,19.5
2023-09-11T05:59:00+09:00,0,0,10.5,19.5
2023-09-11T06:00:00+09:00,0,0,10.5,19.5
2023-09-11T06:01:00+09:00,0,0,10.5,19.5
2023-09-11T06:02:00+09:00,0,0,10.5,19.5
2023-09-11T06:03:00+09:00,0,0,10.5,19.5
2023-09-11T06:04:00+09:00,0,0,10.5,19.5
2023-09-11T06:05:00+09:00,0,0,10.5,19.5
2023-09-11T06:06:00+09:00,0,0,10.5,19.5
2023-09-11T06:07:00+09:00,0,0,10.5,19.5
2023-09-11T06:08:00+09:00,0,0,10.5,19.5
2023-09-11T06:09:00+09:00,0,0,10.5,19.5
2023-09-11T06:10:00+09:00,0,0,10.5,19.5
2023-09-11T06:11:00+09:00,0,0,10.5,19.5
2023-09-11T06:12:00+09:00,0,0,10.5,19.5
2023-09-11T06:13:00+09:00,0,0,10.5,19.5
2023-09-11T06:14:00+09:00,0,0,10.5,19.5
2023-09-11T06:15:00+09:00,0,0,10.5,19.5
2023-09-11T06:16:00+09:00,0,0,10.5,19.5
2023-09-11T06:17:00+09:00,0,0,10.5,19.5
2023-09-11T06:18:00+09:00,0,0,10.5,19.5
2023-09-11T06:19:00+09:00,0,0,10.5,19.5
2023-09-11T06:20:00+09:00,0,0,10.5,19.5
2023-09-11T06:21:00+09:00,0,0,10.5,19.5
2023-09-11T06:22:00+09:00,0,0,10.5,19.5
2023-09-11T06:23:00+09:00,0,0,10.5,19.5
2023-09-11T06:24:00+09:00,0,0,10.5,19.5
2023-09-11T06:25:00+09:00,0,0,10.5,19.5
2023-09-11T06:26:00+09:00,0,0,10.5,19.5
2023-09-11T06:27:00+09:00,0,0,10.5,19.5
2023-09-11T06:28:00+09:00,0,0,10.5,19.5
2023-09-11T06:29:00+09:00,0,0,10.5,19.5
2023-09-11T06:30:00+09:00,0,0,10.5,19.5
2023-09-11T06:31:00+09:00,0,0,10.5,19.5
2023-09-11T06:32:00+09:00,0,0,10.5,19.5
2023-09-11T06:33:00+09:00,0,0,10.5,19.5
2023-09-11T06:34:00+09:00,0,0,10.5,19.5
2023-09-11T06:35:00+09:00,0,0,10.5,19.5
2023-09-11T06:36:00+09:00,0,0,10.5,19.5
2023-09-11T06:37:00+09:00,0,0,10.5,19.5
2023-09-11T06:38:00+09:00,0,0,10.5,19.5
2023-09-11T06:39:00+09:00,0,0,10.5,19.5
2023-09-11T06:40:00+09:00,0,0,10.5,19.5
2023-09-11T06:41:00+09:00,0,0,10.5,19.5
2023-09-11T06:42:00+09:00,0,0,10.5,19.5
2023-09-11T06:43:00+09:00,0,0,10.5,19.5
2023-09-11T06:44:00+09:00,0,0,10.5,19.5
2023-09-11T06:45:00+09:00,0,0,10.5,19.5
2023-09-11T06:46:00+09:00,0,0,10.5,19.5
2023-09-11T06:47:00+09:00,0,0,10.5,19.5
2023-09-11T06:48:00+09:00,0,0,10.5,19.5
2023-09-11T06:49:00+09:00,0,0,10.5,19.5
2023-09-11T06:50:00+09:00,0,0,10.5,19.5
2023-09-11T06:51:00+09:00,0,0,10.5,19.5
2023-09-11T06:52:00+09:00,0,0,10.5,19.5
2023-09-11T06:53:00+09:00,0,0,10.5,19.5
2023-09-11T06:54:00+09:00,0,0,10.5,19.5
2023-09-11T06:55:00+09:00,0,0,10.5,19.5
2023-09-11T06:56:00+09:00,0,0,10.5,19.5
2023-09-11T06:57:00+09:00,0,0,10.5,19.5
2023-09-11T06:58:00+09:00,0,0,10.5,19.5
2023-09-11T06:59:00+09:00,0,0,10.5,19.5
2023-09-11T07:00:00+09:00,0,0,10.5,19.5
2023-09-11T07:01:00+09:00,0,0,10.5,19.5
2023-09-11T07:02:00+09:00,0,0,10.5,19.5
2023-09-11T07:03:00+09:00,0,0,10.5,19.5
2023-09-11T07:04:00+09:00,0,0,10.5,19.5
2023-09-11T07:05:00+09:00,0,0,10.5,19.5
2023-09-11T07:06:00+09:00,0,0,10.5,19.5
2023-09-11T07:07:00+09:00,0,0,10.5,19.5
2023-09-11T07:08:00+09:00,0,0,10.5,19.5
2023-09-11T07:09:00+09:00,0,0,10.5,19.5
2023-09-11T07:10:00+09:00,0,0,10.5,19.5
2023-09-11T07:11:00+09:00,0,0,10.5,19.5
2023-09-11T07:12:00+09:00,0,0,10.5,19.5
2023-09-11T07:13:00+09:00,0,0,10.5,19.5
2023-09-11T07:14:00+09:00,0,0,10.5,19.5
2023-09-11T07:15:00+09:00,0,0,10.5,19.5
2023-09-11T07:16:00+09:00,0,0,10.5,19.5
2023-09-11T07:17:00+09:00,0,0,10.5,19.5
2023-09-11T07:18:00+09:00,0,0,10.5,19.5
2023-09-11T07:19:00+09:00,0,0,10.5,19.5
2023-09-11T07:20:00+09:00,0,0,10.5,19.5
2023-09-11T07:21:00+09:00,0,0,10.5,19.5
2023-09-11T07:22:00+09:00,0,0,10.5,19.5
2023-09-11T07:23:00+09:00,0,0,10.5,19.5
2023-09-11T07:24:00+09:00,0,0,10.5,19.5
2023-09-11T07:25:00+09:00,0,0,10.5,19.5
2023-09-11T07:26:00+09:00,0,0,10.5,19.5
2023-09-11T07:27:00+09:00,0,0,10.5,19.5
2023-09-11T07:28:00+09:00,0,0,10.5,19.5
2023-09-11T07:29:00+09:00,0,0,10.5,19.5
2023-09-11T07:30:00+09:00,0,0,10.5,19.5
2023-09-11T07:31:00+09:00,0,0,10.5,19.5
2023-09-11T07:32:00+09:00,0,0,10.5,19.5
2023-09-11T07:33:00+09:00,0,0,10.5,19.5
2023-09-11T07:34:00+09:00,0,0,10.5,19.5
2023-09-11T07:35:00+09:00,0,0,10.5,19.5
2023-09-11T07:36:00+09:00,0,0,10.5,19.5
2023-09-11T07:37:00+09:00,0,0,10.5,19.5
2023-09-11T07:38:00+09:00,0,0,10.5,19.5
2023-09-11T07:39:00+09:00,0,0,10.5,19.5
2023-09-11T07:40:00+09:00,0,0,10.5,19.5
2023-09-11T07:41:00+09:00,0,0,10.5,19.5
2023-09-11T07:42:00+09:00,0,0,10.5,19.5
2023-09-11T07:43:00+09:00,0,0,10.5,19.5
2023-09-11T07:44:00+09:00,0,0,10.5,19.5
2023-09-11T07:45:00+09:00,0,0,10.5,19.5
2023-09-11T07:46:00+09:00,0,0,10.5,19.5
2023-09-11T07:47:00+09:00,0,0,10.5,19.5
2023-09-11T07:48:00+09:00,0,0,10.5,19.5
2023-09-11T07:49:00+09:00,0,0,10.5,19.5
2023-09-11T07:50:00+09:00,0,0,10.5,19.5
2023-09-11T07:51:00+09:00,0,0,10.5,19.5
2023-09-11T07:52:00+09:00,0,0,10.5,19.5
2023-09-11T07:53:00+09:00,0,0,10.5,19.5
2023-09-11T07:54:00+09:00,0,0,10.5,19.5
2023-09-11T07:55:00+09:00,0,0,10.5,19.5
2023-09-11T07:56:00+09:00,0,0,10.5,19.5
2023-09-11T07:57:00+09:00,0,0,10.5,19.5
2023-09-11T07:58:00+09:00,0,0,10.5,19.5
2023-09-11T07:59:00+09:00,0,0,10.5,19.5
2023-09-11T08:00:00+09:00,0,0,10.5,19.5
2023-09-11T08:01:00+09:00,0,0,10.5,19.5
2023-09-11T08:02:00+09:00,0,0,10.5,19.5
2023-09-11T08:03:00+09:00,0,0,10.5,19.5
2023-09-11T08:04:00+09:00,0,0,10.5,19.5
2023-09-11T08:05:00+09:00,0,0,10.5,19.5
2023-09-11T08:06:00+09:00,0,0,10.5,19.5
2023-09-11T08:07:00+09:00,0,0,10.5,19.5
2023-09-11T08:08:00+09:00,0,0,10.5,19.5
2023-09-11T08:09:00+09:00,0,0,10.5,19.5
2023-09-11T08:10:00+09:00,0,0,10.5,19.5
2023-09-11T08:11:00+09:00,0,0,10.5,19.5
2023-09-11T08:12:00+09:00,0,0,10.5,19.5
2023-09-11T08:13:00+09:00,0,0,10.5,19.5
2023-09-11T08:14:00+09:00,0,0,10.5,19.5
2023-09-11T08:15:00+09:00,0,0,10.5,19.5
2023-09-11T08:16:00+09:00,0,0,10.5,19.5
2023-09-11T08:17:00+09:00,0,0,10.5,19.5
2023-09-11T08:18:00+09:00,0,0,10.5,19.5
2023-09-11T08:19:00+09:00,0,0,10.5,19.5
2023-09-11T08:20:00+09:00,0,0,10.5,19.5
2023-09-11T08:21:00+09:00,0,0,10.5,19.5
2023-09-11T08:22:00+09:00,0,0,10.5,19.5
2023-09-11T08:23:00+09:00,0,0,10.5,19.5
2023-09-11T08:24:00+09:00,0,0,10.5,19.5
2023-09-11T08:25:00+09:00,0,0,10.5,19.5
2023-09-11T08:26:00+09:00,0,0,10.5,19.5
2023-09-11T08:27:00+09:00,,,,
2023-09-11T08:28:00+09:00,0,0,10.5,19.5
2023-09-11T08:29:00+09:00,0,0,10.5,19.5
2023-09-11T08:30:00+09:00,0,0,10.5,19.5
2023-09-11T08:31:00+09:00,0,0,10.5,19.5
2023-09-11T08:32:00+09:00,0,0,10.5,19.5
2023-09-11T08:33:00+09:00,0,0,10.5,19.5
2023-09-11T08:34:00+09:00,0,0,10.5,19.5
2023-09-11T08:35:00+09:00,0,0,10.5,19.5
2023-09-11T08:36:00+09:00,0,0,10.5,19.5
2023-09-11T08:37:00+09:00,0,0,10.5,19.5
2023-09-11T08:38:00+09:00,0,0,10.5,19.5
2023-09-11T08:39:00+09:00,0,0,10.5,19.5
2023-09-11T08:40:00+09:00,0,0,10.5,19.5
2023-09-11T08:41:00+09:00,0,0,10.5,19.5
2023-09-11T08:42:00+09:00,0,0,10.5,19.5
2023-09-11T08:43:00+09:00,0,0,10.5,19.5
2023-09-11T08:44:00+09:00,0,0,10.5,19.5
2023-09-11T08:45:00+09:00,0,0,10.5,19.5
2023-09-11T08:46:00+09:00,0,0,10.5,19.5
2023-09-11T08:47:00+09:00,0,0,10.5,19.5
2023-09-11T08:48:00+09:00,0,0,10.5,19.5
2023-09-11T08:49:00+09:00,0,0,10.5,19.5
2023-09-11T08:50:00+09:00,0,0,10.5,19.5
2023-09-11T08:51:00+09:00,0,0,10.5,19.5
2023-09-11T08:52:00+09:00,0,0,10.5,19.5
2023-09-11T08:53:00+09:00,0,0,10.5,19.5
2023-09-11T08:54:00+09:00,0,0,10.5,19.5
2023-09-11T08:55:00+09:00,0,0,10.5,19.5
2023-09-11T08:56:00+09:00,0,0,10.5,19.5
2023-09-11T08:57:00+09:00,0,0,10.5,19.5
2023-09-11T08:58:00+09:00,0,0,10.5,19.5
2023-09-11T08:59:00+09:00,0,0,10.5,19.5
2023-09-11T09:00:00+09:00,0,0,10.5,19.5
2023-09-11T09:01:00+09:00,0,0,10.5,19.5
2023-09-11T09:02:00+09:00,0,0,10.5,19.5
2023-09-11T09:03:00+09:00,0,0,10.5,19.5
2023-09-11T09:04:00+09:00,0,0,10.5,19.5
2023-09-11T09:05:00+09:00,0,0,10.5,19.5
2023-09-11T09:06:00+09:00,0,0,10.5,19.5
2023-09-11T09:07:00+09:00,0,0,10.5,19.5
2023-09-11T09:08:00+09:00,0,0,10.5,19.5
2023-09-11T09:09:00+09:00,0,0,10.5,19.5
2023-09-11T09:10:00+09:00,0,0,10.5,19.5
2023-09-11T09:11:00+09:00,0,0,10.5,19.5
2023-09-11T09:12:00+09:00,0,0,10.5,19.5
2023-09-11T09:13:00+09:00,0,0,10.5,19.5
2023-09-11T09:14:00+09:00,0,0,10.5,19.5
2023-09-11T09:15:00+09:00,0,0,10.5,19.5
2023-09-11T09:16:00+09:00,0,0,10.5,19.5
2023-09-11T09:17:00+09:00,0,0,10.5,19.5
2023-09-11T09:18:00+09:00,0,0,10.5,19.5
2023-09-11T09:19:00+09:00,0,0,10.5,19.5
2023-09-11T09:20:00+09:00,0,0,10.5,19.5
2023-09-11T09:21:00+09:00,0,0,10.5,19.5
2023-09-11T09:22:00+09:00,0,0,10.5,19.5
2023-09-11T09:23:00+09:00,0,0,10.5,19.5
2023-09-11T09:24:00+09:00,0,0,10.5,19.5
2023-09-11T09:25:00+09:00,0,0,10.5,19.5
2023-09-11T09:26:00+09:00,0,0,10.5,19.5
2023-09-11T09:27:00+09:00,0,0,10.5,19.5
2023-09-11T09:28:00+09:00,0,0,10.5,19.5
2023-09-11T09:29:00+09:00,0,0,10.5,19.5
2023-09-11T09:30:00+09:00,0,0,10.5,19.5
2023-09-11T09:31:00+09:00,0,0,10.5,19.5
2023-09-11T09:32:00+09:00,0,0,10.5,19.5
2023-09-11T09:33:00+09:00,0,0,10.5,19.5
2023-09-11T09:34:00+09:00,0,0,10.5,19.5
2023-09-11T09:35:00+09:00,0,0,10.5,19.5
2023-09-11T09:36:00+09:00,0,0,10.5,19.5
2023-09-11T09:37:00+09:00,0,0,10.5,19.5
2023-09-11T09:38:00+09:00,0,0,10.5,19.5
2023-09-11T09:39:00+09:00,0,0,10.5,19.5
2023-09-11T09:40:00+09:00,0,0,10.5,19.5
2023-09-11T09:41:00+09:00,0,0,10.5,19.5
2023-09-11T09:42:00+09:00,0,0,10.5,19.5
2023-09-11T09:43:00+09:00,0,0,10.5,19.5
2023-09-11T09:44:00+09:00,0,0,10.5,19.5
2023-09-11T09:45:00+09:00,0,0,10.5,19.5
2023-09-11T09:46:00+09:00,0,0,10.5,19.5
2023-09-11T09:47:00+09:00,0,0,10.5,19.5
2023-09-11T09:48:00+09:00,0,0,10.5,19.5
2023-09-11T09:49:00+09:00,0,0,10.5,19.5
2023-09-11T09:50:00+09:00,0,0,10.5,19.5
2023-09-11T09:51:00+09:00,0,0,10.5,19.5
2023-09-11T09:52:00+09:00,0,0,10.5,19.5
2023-09-11T09:53:00+09:00,0,0,10.5,19.5
2023-09-11T09:54:00+09:00,0,0,10.5,19.5
2023-09-11T09:55:00+09:00,0,0,10.5,19.5
2023-09-11T09:56:00+09:00,0,0,10.5,19.5
2023-09-11T09:57:00+09:00,0,0,10.5,19.5
2023-09-11T09:58:00+09:00,0,0,10.5,19.5
2023-09-11T09:59:00+09:00,0,0,10.5,19.5
2023-09-11T10:00:00+09:00,0,0,10.5,19.5
2023-09-11T10:01:00+09:00,0,0,10.5,19.5
2023-09-11T10:02:00+09:00,0,0,10.5,19.5
2023-09-11T10:03:00+09:00,0,0,10.5,19.5
2023-09-11T10:04:00+09:00,0,0,10.5,19.5
2023-09-11T10:05:00+09:00,0,0,10.5,19.5
2023-09-11T10:06:00+09:00,0,0,10.5,19.5
2023-09-11T10:07:00+09:00,0,0,10.5,19.5
2023-09-11T10:08:00+09:00,0,0,10.5,19.5
2023-09-11T10:09:00+09:00,0,0,10.5,19.5
2023-09-11T10:10:00+09:00,0,0,10.5,19.5
2023-09-11T10:11:00+09:00,0,0,10.5,19.5
2023-09-11T10:12:00+09:00,0,0,10.5,19.5
2023-09-11T10:13:00+09:00,0,0,10.5,19.5
2023-09-11T10:14:00+09:00,0,0,10.5,19.5